[[{"header":{"parameterUnit":"m.s-1","parameterCategory":1,"la1":30.2992,"la2":30.254,"lo1":-89.0895,"lo2":-89.0443,"dy":0.0025,"dx":0.0025,"nx":19,"ny":19,"refTime":"2026-03-20T21:00:00:Z","depth":0,"parameterNumber":2,"parameterNumberName":"U-component_of_WINDS"},"data":[0,0,0,1.6493,1.6494,1.6552,1.6552,1.663,1.6631,0,0,0,0,0,0,0,0,0,0,0,1.648,1.6481,1.6493,1.6494,1.6552,1.6552,1.663,1.6631,0,0,0,0,0,0,0,0,0,0,0,1.648,1.6481,1.6482,1.6495,1.6551,1.6552,1.663,1.6585,0,0,0,0,0,0,0,0,0,0,1.6528,1.6521,1.6481,1.6482,1.6495,1.6551,1.6552,1.6582,1.6587,1.6607,0,1.6626,0,1.663,1.6637,1.6637,0,0,0,1.6491,1.6517,1.6528,1.6482,1.6496,1.6551,1.6525,1.6585,1.6591,1.6614,1.6627,1.663,1.6631,1.6637,1.6638,1.6759,1.676,0,0,1.6488,1.6493,1.6524,1.6532,1.6525,1.6523,1.6527,1.6589,1.6604,1.6627,1.6632,1.6632,1.6638,1.6638,1.6758,1.6759,0,0,0,1.6481,1.6491,1.6501,1.6529,1.6539,1.6525,1.6529,1.6601,1.6603,1.6632,1.6633,1.6638,1.6639,1.6758,1.6759,1.6797,0,0,0,1.6479,1.6487,1.65,1.6503,1.6538,1.6571,1.654,1.6599,1.6606,1.6633,1.6638,1.664,1.6757,1.6758,1.6795,1.6815,0,0,0,1.6475,1.6487,1.6496,1.6504,1.6528,1.657,1.6576,1.66,1.6607,1.6637,1.664,1.6756,1.6758,1.6792,1.6811,1.6846,0,0,0,1.6473,1.6533,1.6497,1.6564,1.6528,1.6594,1.6575,1.6625,1.6656,1.6639,1.6757,1.6759,1.6791,1.6808,1.6843,1.6875,1.6889,0,0,1.6551,1.6542,1.6581,1.6551,1.6624,1.6585,1.6663,1.6687,1.6686,1.6734,1.6737,1.6795,1.681,1.6845,1.697,1.6982,0,0,0,1.6607,1.6635,1.6653,1.6682,1.67,1.6717,1.6728,1.6736,1.6776,1.6712,1.6818,1.6827,1.6847,1.6862,1.6872,1.6887,1.6766,1.6766,1.6766,1.6726,1.6719,1.6781,1.6779,1.6807,1.6816,1.6837,1.6849,1.6837,1.6861,1.6875,1.6952,1.697,1.6977,1.6993,1.6893,1.6893,1.6894,1.6894,1.6838,1.6874,1.6852,1.6904,1.6895,1.6939,1.6948,1.6936,1.6974,1.6942,1.696,1.6923,1.699,1.7003,1.6896,1.6896,1.6896,1.6895,1.6895,1.6913,1.6929,1.6937,1.6974,1.7004,1.7,1.7036,1.7028,1.7021,1.7038,1.705,1.7049,1.7045,1.7045,1.7045,1.7045,1.7045,1.7046,1.7046,1.6988,1.6995,1.7026,1.7048,1.7063,1.7081,1.7088,1.7102,1.7116,1.7107,1.7107,1.7089,1.6998,1.6974,1.705,1.7049,1.7049,1.7048,1.7048,1.7101,1.7073,1.7122,1.7136,1.7158,1.7186,1.7174,1.7203,1.7214,1.7231,1.7209,1.7144,1.7134,1.7127,1.7106,1.7212,1.7212,1.7212,1.7212,1.7163,1.7157,1.7202,1.7225,1.7247,1.724,1.7292,1.7296,1.7296,1.7301,1.7285,1.7258,1.7251,1.7246,1.7236,1.7217,1.7348,1.7348,1.7348,1.7231,1.7226,1.7272,1.7271,1.7286,1.7299,1.7346,1.7373,1.7368,1.7353,1.7305,1.7299,1.7256,1.7243,1.7227,1.7211,1.7176,0,0]},{"header":{"parameterUnit":"m.s-1","parameterCategory":1,"la1":30.2992,"la2":30.254,"lo1":-89.0895,"lo2":-89.0443,"dy":0.0025,"dx":0.0025,"nx":19,"ny":19,"refTime":"2026-03-20T21:00:00:Z","depth":0,"parameterNumber":3,"parameterNumberName":"V-component_of_WINDS"},"data":[0,0,0,4.8785,4.8787,4.883,4.883,4.8904,4.8905,0,0,0,0,0,0,0,0,0,0,0,4.8786,4.8787,4.8785,4.8787,4.883,4.883,4.8904,4.8905,0,0,0,0,0,0,0,0,0,0,0,4.8785,4.8787,4.8788,4.8787,4.883,4.883,4.8903,4.8864,0,0,0,0,0,0,0,0,0,0,4.8819,4.8833,4.8786,4.8788,4.8787,4.8829,4.883,4.8862,4.8866,4.8893,0,4.8922,0,4.8915,4.8911,4.8911,0,0,0,4.8777,4.8829,4.8828,4.8788,4.8788,4.8829,4.8807,4.8864,4.8869,4.89,4.8922,4.8925,4.8916,4.8912,4.8912,4.9102,4.9103,0,0,4.8774,4.8801,4.8825,4.8833,4.8829,4.8806,4.8809,4.8867,4.8893,4.8923,4.8926,4.8917,4.8912,4.8913,4.9101,4.9102,0,0,0,4.8774,4.8799,4.8797,4.883,4.8836,4.8808,4.8811,4.8891,4.8888,4.8927,4.8918,4.8913,4.8914,4.9099,4.9101,4.9193,0,0,0,4.8772,4.8799,4.8797,4.8813,4.8836,4.8864,4.8834,4.8884,4.8889,4.8917,4.8913,4.8915,4.9098,4.91,4.9187,4.9232,0,0,0,4.8779,4.88,4.8811,4.8814,4.8834,4.8863,4.8863,4.8884,4.8885,4.8911,4.8915,4.9097,4.91,4.9182,4.9223,4.9288,0,0,0,4.8793,4.8893,4.8813,4.8921,4.8834,4.892,4.8862,4.8925,4.8959,4.8913,4.9098,4.9101,4.9181,4.9218,4.9283,4.9346,4.9376,0,0,4.8933,4.891,4.8972,4.8901,4.9009,4.8912,4.9032,4.9038,4.9016,4.9074,4.9079,4.9189,4.9223,4.9287,4.9535,4.9558,0,0,0,4.9025,4.9069,4.9092,4.9126,4.9133,4.9142,4.9127,4.9129,4.9177,4.9052,4.923,4.9249,4.9286,4.9315,4.9335,4.9364,4.9116,4.9116,4.9116,4.9261,4.9228,4.9326,4.9298,4.9332,4.9315,4.9338,4.9338,4.9295,4.9338,4.9354,4.9509,4.9544,4.9558,4.9589,4.9387,4.9387,4.9387,4.9387,4.9462,4.9518,4.9459,4.9533,4.9497,4.9558,4.9546,4.9513,4.9564,4.9494,4.9524,4.9449,4.9585,4.961,4.9394,4.9393,4.9392,4.9391,4.9391,4.9611,4.9632,4.9633,4.9677,4.9715,4.9683,4.9735,4.97,4.9669,4.9699,4.9711,4.971,4.9702,4.9708,4.9708,4.9709,4.9709,4.971,4.971,4.9765,4.9763,4.9811,4.9826,4.9843,4.986,4.9843,4.9858,4.9865,4.9836,4.9836,4.9788,4.9606,4.956,4.9718,4.9717,4.9716,4.9715,4.9714,4.9978,4.9924,4.9998,5.0014,5.0029,5.0067,5.0023,5.0056,5.0063,5.0089,5.0035,4.9907,4.988,4.9864,4.9826,5.0043,5.0043,5.0043,5.0043,5.0102,5.0086,5.0153,5.0181,5.0204,5.0172,5.0254,5.0243,5.0222,5.0224,5.0188,5.0134,5.0119,5.0102,5.008,5.0043,5.0312,5.0312,5.0312,5.023,5.0215,5.0292,5.0271,5.0279,5.0287,5.0363,5.0397,5.0362,5.0322,5.0224,5.0213,5.0126,5.01,5.0056,5.0024,4.9956,0,0]}]]